Regional Weather Roundup
Issued by NWS

Home | Current Version | Previous Version | Graphics & Text | Print | Product List | Glossary On
Versions: 1 2 3 4 5 6 7 8 9 10 11 12 13 14 15 16 17 18 19 20 21 22 23 24 25 26 27 28 29 30 31 32 33 34 35 36 37 38 39 40 41 42 43 44 45 46 47 48 49 50
000
ASUS43 KLOT 050312
RWRIL

ILLINOIS REGIONAL WEATHER ROUNDUP
NATIONAL WEATHER SERVICE CHICAGO/ROMEOVILLE IL
900 PM CST SUN DEC 04 2016

NOTE: "FAIR" INDICATES FEW OR NO CLOUDS BELOW 12,000 FEET WITH NO
SIGNIFICANT WEATHER AND/OR OBSTRUCTIONS TO VISIBILITY.

* THESE STATIONS ARE NOT UNDER NWS QUALITY CONTROL. THEY ALSO MAY NOT
  REPORT WEATHER SUCH AS PRECIPITATION OR FOG.

ILZ001-002-007-009-015-016-024-050400-
NORTHWEST ILLINOIS

CITY           SKY/WX    TMP DP  RH WIND       PRES   REMARKS
MOLINE         CLOUDY    35  31  85 W10       29.94R WCI  27
STERLING*      CLOUDY    32  31  96 SW8       29.92S FOG     WCI  25
SAVANNA*       CLOUDY    33  32  95 SW8       29.91S WCI  26
$$

ILZ003-004-008-010-011-017-018-050400-
NORTH CENTRAL ILLINOIS

CITY           SKY/WX    TMP DP  RH WIND       PRES   REMARKS
ROCKFORD       CLOUDY    32  30  92 SW8       29.91S FOG     WCI  25
FREEPORT*      FOG       31  31  99 SW7       29.90S VSB 1   WCI  24
ROCHELLE*      FOG       31  31  99 SW7       29.90F VSB 1   WCI  24
DE KALB*       CLOUDY    31  30  96 SW5       29.89S FOG     WCI  26
$$

ILZ005-006-012>014-019>023-050400-
NORTHEAST ILLINOIS

CITY           SKY/WX    TMP DP  RH WIND       PRES   REMARKS
CHICAGO-OHARE  MOCLDY    27  26  96 SW6       29.88R FOG     WCI  20
CHICAGO-MIDWAY CLOUDY    33  29  85 W12       29.89S FOG     WCI  24
AURORA         CLOUDY    31  29  92 W7        29.91R FOG     WCI  24
LANSING*       CLOUDY    31  31 100 CALM      29.90R FOG
JOLIET*        CLOUDY    32  31  99 CALM      29.91S FOG
WAUKEGAN       CLOUDY    31  29  92 SW6       29.86S FOG     WCI  25
DUPAGE AIRPORT MOCLDY    31  28  89 W8        29.88S FOG     WCI  23
KANKAKEE*      CLOUDY    32  31  97 CALM      29.92S FOG
WHEELING       MOCLDY    30  29  96 W7        29.89S FOG     WCI  23
MORRIS*        CLOUDY    30  29  97 CALM      29.92R FOG
ROMEOVILLE*    CLOUDY    31  31 100 CALM      29.90S FOG
NORTHERLY ISL    N/A     34  32  92 W8          N/A  WCI  27
$$

LMZ740>746-050400-
SOUTHERN LAKE MICHIGAN

STATION/POSITION SKY/WX   TEMP    WIND        PRES    VSBY  WAVE
                          AIR SEA DIR/SP/G                  HT/PER
                          (F)     (DEG/KT/KT) (MB)    (MI)  (FT/S)
HARRISON CRIB              35     270/ 12/ 13   N/A
BURNHAM HARBOR             34     250/  7/  8   N/A
CALUMET HARBOR             33     230/  5/  7 1011.6R
BURNS HARBOR               38     270/ 13/ 17 1012.2
$$

ILZ025>027-034>036-040-047-049-050-058-095>099-050400-
WEST-CENTRAL ILLINOIS

CITY           SKY/WX    TMP DP  RH WIND       PRES   REMARKS
QUINCY         CLOUDY    34  33  96 W7        29.99F WCI  28
GALESBURG*     CLOUDY    33  32  98 SW7       29.96R WCI  27
MACOMB*        CLOUDY    34  33  97 W10       30.00S WCI  26
JACKSONVILLE*  CLOUDY    34  32  93 W8        30.01R WCI  27
PITTSFIELD*    CLOUDY    35  33  92 W10       30.01F WCI  27
$$

ILZ028>032-037-038-041>044-048-051>054-059>061-050400-
CENTRAL ILLINOIS

CITY           SKY/WX    TMP DP  RH WIND       PRES   REMARKS
PONTIAC        CLOUDY    32  32 100 SW7       29.95R FOG     WCI  26
BLOOMINGTON    CLOUDY    32  30  93 W10       29.97R FOG     WCI  24
DECATUR        CLOUDY    34  34 100 W8        29.99R WCI  27
PEORIA         CLOUDY    33  33 100 W9        29.98R WCI  25
LACON*         CLOUDY   N/A N/A N/A SW8       29.95R FOG
LINCOLN*       CLOUDY    34  34  98 W5        29.98S WCI  30
SPRINGFIELD    CLOUDY    35  32  88 W8        30.01R WCI  29
TAYLORVILLE    CLOUDY    34  32  93 W8        30.01R WCI  27
$$

ILZ033-039-045-046-055>057-062-063-050400-
EAST-CENTRAL ILLINOIS

CITY           SKY/WX    TMP DP  RH WIND       PRES   REMARKS
CHAMPAIGN      CLOUDY    33  31  92 W15       29.96R FOG     WCI  23
RANTOUL*       CLOUDY    34  34  99 W12       29.96R FOG     WCI  26
MATTOON        CLOUDY    35  32  88 W10       29.98R WCI  27
PARIS*         CLOUDY    34  33  96 W14       29.98R WCI  25
$$

ILZ079-100>102-050400-
SOUTHWEST ILLINOIS

CITY           SKY/WX    TMP DP  RH WIND       PRES   REMARKS
ALTON          CLOUDY    36  34  93 S9        30.03R WCI  29
BELLEVILLE     CLOUDY    39  38  98 NW8       30.03R WCI  33
CAHOKIA*       CLOUDY    40  34  79 NW12      30.04R
SPARTA*        CLOUDY    40  35  84 W6        30.04R
$$

ILZ064>066-069>071-074>076-080>082-084>086-088>090-092>094-050400-
SOUTH-CENTRAL ILLINOIS

CITY           SKY/WX    TMP DP  RH WIND       PRES   REMARKS
CARBONDALE     CLOUDY    41  36  82 NW9       30.04R
CAIRO*         CLOUDY    42  37  83 NW9       30.05R
EFFINGHAM*     CLOUDY    36  35  97 W10       30.03R WCI  28
MARION         CLOUDY    41  37  87 CALM      30.04R
CENTRALIA*     CLOUDY    39  36  89 NW7       30.02R WCI  34
SALEM*         CLOUDY    38  34  84 NW7       30.03R WCI  33
METROPOLIS*    CLOUDY    42  37  83 CALM      30.04S
$$

ILZ067-068-072-073-078-083-087-091-050400-
SOUTHEAST ILLINOIS

CITY           SKY/WX    TMP DP  RH WIND       PRES   REMARKS
LAWRENCEVILLE  CLOUDY    39  37  92 W15       30.01R WCI  31
FLORA*         CLOUDY    40  34  81 NW10      30.02R
FAIRFIELD*     CLOUDY    39  34  82 NW6       30.02R WCI  35
HARRISBURG*    CLOUDY    40  36  85 W6        30.04R
ROBINSON*      CLOUDY    37  33  85 NW12G17   30.01R WCI  30
CARMI*         CLOUDY    39  36  87 W7        30.03R WCI  34
$$

ABBREVIATIONS USED IN REMARKS
   TC - TEMPERATURE IN CELSIUS
  WCI - WIND CHILL INDEX
   HX - HEAT INDEX
  VSB - VISIBILITY
$$





USA.gov is the U.S. government's official web portal to all federal, state and local government web resources and services.